Flag for U.S.A. Weather past 2 weeks in Minot, North Dakota, U.S.A.

Now
27 °F

Passing clouds.


Feels Like: 19 °F
Forecast: 29 / 47 °F
Wind: 8 mph from Southeast

Location: Minot International Airport

Current Time: Mar 27, 2015 at 2:54:03 AM

Latest Report: Mar 27, 2015 at 1:54 AM


Visibility: 10 mi

Pressure: 30.22 "Hg

Humidity: 69%

Dew point: 18 °F

Location of MinotLocation

Historic Weather in Minot — Graph

°F

Minot temperature yesterday

Maximum temperature yesterday: 38 °F (at 3:54 PM)
Minimum temperature yesterday: 21 °F (at 2:54 AM)
Average temperature yesterday: 30 °F

Past Weeks' High & Low Weather Summary

 TemperatureHumidityPressure
High67 °F (Mar 14, 3:54 PM)97% (Mar 12, 11:54 PM)30.60 "Hg (Mar 12, 11:54 PM)
Low19 °F (Mar 17, 7:54 AM)22% (Mar 15, 5:54 PM)29.57 "Hg (Mar 15, 1:54 AM)
Average36 °F70%30.11 "Hg
* Reported Mar 12 1:54 AM — Mar 27 1:54 AM, Minot, Weather by CustomWeather, © 2015

Note: Actual official high and low records may vary slightly from our data, if they occured in-between our weather recording intervals... More about our weather records

Advertising

Minot weather history for previous 24 hours

 ConditionsComfort  
Time TempWeatherWind HumidityBarometerVisibility
1:54 AM
Fri, Mar 27
27 °FPassing clouds.8 mph69%30.22 "Hg10 mi
12:54 AM27 °FClear.10 mph69%30.25 "Hg10 mi
11:54 PM
Thu, Mar 26
26 °FClear.9 mph71%30.27 "Hg10 mi
10:54 PM27 °FClear.9 mph66%30.28 "Hg10 mi
9:54 PM29 °FClear.9 mph66%30.28 "Hg10 mi
8:54 PM30 °FSunny.6 mph69%30.29 "Hg10 mi
7:54 PM32 °FSunny.6 mph61%30.29 "Hg10 mi
6:54 PM36 °FSunny.6 mph50%30.29 "Hg10 mi
5:54 PM38 °FSunny.No wind46%30.28 "Hg10 mi
4:54 PM37 °FSunny.5 mph48%30.29 "Hg10 mi
3:54 PM38 °FPassing clouds.N/A46%30.28 "Hg10 mi
2:54 PM37 °FPartly sunny.3 mph50%30.29 "Hg10 mi
1:54 PM34 °FScattered clouds.6 mph56%30.30 "Hg10 mi
12:54 PM34 °FOvercast.N/A61%30.31 "Hg10 mi
11:54 AM32 °FPartly sunny.6 mph66%30.31 "Hg10 mi
10:54 AM33 °FPassing clouds.6 mph63%30.30 "HgN/A
9:54 AM29 °FOvercast.8 mph79%30.29 "Hg10 mi
8:54 AM27 °FOvercast.7 mph81%30.28 "Hg10 mi
7:54 AM26 °FOvercast.No wind81%30.26 "Hg10 mi
6:54 AM25 °FOvercast.3 mph88%30.24 "Hg10 mi
5:54 AM26 °FOvercast.No wind84%30.24 "Hg10 mi
4:54 AM26 °FOvercast.3 mph84%30.24 "Hg9 mi
3:54 AM24 °FOvercast.No wind91%30.24 "Hg7 mi
2:54 AM21 °FIce fog.3 mph92%30.24 "Hg5 mi
Weather by CustomWeather, © 2015

See weather overviewHow to use our weather pages